Regional Weather Roundup
Issued by NWS Sioux Falls, SD

Home | Current Version | Previous Version | Text Only | Print | Product List | Glossary On
Versions: 1 2 3 4 5 6 7 8 9 10 11 12 13 14 15 16 17 18 19 20 21 22 23 24 25 26 27 28 29 30 31 32 33 34 35 36 37 38 39 40 41 42 43 44 45 46 47 48 49 50
000
ASUS43 KFSD 312210
RWRFSD

WEATHER ROUNDUP FOR SE SOUTH DAKOTA/SW MINNESOTA/NW IOWA
NATIONAL WEATHER SERVICE SIOUX FALLS SD
400 PM CST SAT JAN 31 2015

NOTE: "FAIR" INDICATES FEW OR NO CLOUDS BELOW 12,000 FEET WITH NO
SIGNIFICANT WEATHER AND OR OBSTRUCTIONS TO VISIBILITY.


SDZ038>040-050-052>070-312300-
SOUTHEAST SOUTH DAKOTA

CITY           SKY/WX    TMP DP  RH WIND       PRES   REMARKS
CHAMBERLAIN    CLOUDY    21  18  90 NE9G18    30.06S WCI  10
HURON          CLOUDY    22  17  81 NE17      30.12F WCI   8
MADISON        CLOUDY    23  23 100 E22G29    30.05F FOG     WCI   8
MITCHELL       CLOUDY    25  22  88 NE16      30.08F WCI  12
SIOUX FALLS    LGT SNOW  26  23  88 NE21      30.06S FOG     WCI  12
WINNER         FRZ RAIN  24  21  88 NE17      30.03R VSB 1/2 WCI  11
YANKTON        CLOUDY    28  27  93 NE16      30.02F VSB 3/4 WCI  17
$$

MNZ071-072-080-081-089-090-097-098-312300-
SOUTHWEST MINNESOTA

CITY           SKY/WX    TMP DP  RH WIND       PRES   REMARKS
FAIRMONT       CLOUDY    28  25  86 NE12      30.09S WCI  18
JACKSON        CLOUDY    28  27  93 NE15      30.08F FOG     WCI  17
LUVERNE        LGT SNOW  28  27  93 NE18G24   30.06F WCI  16
MARSHALL       CLOUDY    25  21  86 NE15      30.15S WCI  12
MONTEVIDEO     CLOUDY    27  19  74 E10       30.18F WCI  17
PIPESTONE      CLOUDY    25  23  93 E7        30.06F FOG     WCI  17
REDWOOD FALLS  CLOUDY    27  21  78 NE7       30.15F WCI  19
TRACY          CLOUDY    26  26  97 NE10      30.12S FOG     WCI  17
WINDOM         CLOUDY    27  27 100 NE15      30.09F FOG     WCI  15
WORTHINGTON    CLOUDY    27  23  86 NE15      30.07F WCI  15
$$

IAZ001>003-012>014-020>022-031-032-NEZ013-014-SDZ071-312300-
NORTHWEST IOWA

CITY           SKY/WX    TMP DP  RH WIND       PRES   REMARKS
CHEROKEE       LGT SNOW  30  30  99 NE10      30.04F VSB 1   WCI  21
DENISON        LGT SNOW  32  32 100 CALM      30.00F VSB 3/4
ESTHERVILLE    MIX PCPN  27  27 100 NE13      30.07F FOG     WCI  16
LE MARS        LGT SNOW  30  30 100 E10G17    30.03F WCI  21
ORANGE CITY    LGT SNOW  30  27  86 E13G18    30.02F VSB 1   WCI  20
SHELDON        FOG       28  28 100 E21       30.03F VSB 1   WCI  15
SIOUX CITY     LGT RAIN  36  34  92 SE7       30.00F FOG
SPENCER        FOG       28  26  92 NE16      30.06F VSB 1   WCI  16
STORM LAKE     SNOW      30  30 100 NE13      30.04F VSB 1/2 WCI  20
$$

ABBREVIATIONS USED IN REMARKS
   TC - TEMPERATURE IN CELSIUS
  WCI - WIND CHILL INDEX
   HX - HEAT INDEX
  VSB - VISIBILITY



USA.gov is the U.S. government's official web portal to all federal, state and local government web resources and services.